GORIZONT 1 [-]

Last updated on Mon Jun 26 2023 00:02:57 GMT+0000 (Coordinated Universal Time)

1 11158U 78118A 23176.43131433 -.00000182 00000+0 00000+0 0 9992 2 11158 11.1549 190.6259 3375006 301.8458 29.5288 1.00268220112014
UTC large
Height (km)
Speed (km/s)
/
Latitude / Longitude
Inclination (degrees)
Orbital Period (minutes)
Azimuth
Elevation
Range (km)
Doppler Factor

Next 0 passes for location: London (51.5072 / 0.1276)

Sorry there are no passes over London.